RH
6 5 4 5 14 10 11 22 30 79 43 83 60 98 88 85 76 60 42 27 6 14 22 27 25 28 23 20 21 13 12 10 33 43 33 48 54 38 45 34 26 26 16 20
6 5 6 6 6 16 12 7 18 66 93 58 57 65 88 68 71 59 55 43 10 4 9 18 26 26 24 20 22 17 11 10 41 36 22 26 24 36 48 34 28 23 16 17
6 6 7 7 6 5 14 14 8 11 68 94 90 57 89 96 62 60 56 42 33 8 4 8 15 24 24 20 20 20 7 11 31 20 16 22 29 34 33 33 29 24 17 24
8 7 6 6 6 6 6 20 14 6 22 87 62 85 86 56 66 62 56 40 42 27 21 7 3 9 18 24 19 19 6 11 14 17 11 20 23 25 20 21 29 22 14 17
10 8 7 6 6 7 7 15 21 13 6 20 68 75 98 74 83 59 58 47 50 48 35 17 4 3 6 18 20 18 9 5 8 14 9 21 20 17 9 11 31 22 16 15
9 10 8 7 7 6 8 14 15 16 12 7 6 78 80 97 98 79 37 52 56 56 48 34 22 9 3 7 15 14 11 6 9 13 8 15 17 12 7 6 28 27 18 20
8 8 8 8 7 7 8 12 18 23 22 11 4 8 63 97 80 97 46 52 58 66 59 51 43 24 25 4 8 15 12 9 6 12 9 12 16 11 7 7 20 31 18 21
8 21 7 7 8 9 8 10 25 31 34 6 10 5 9 68 98 83 97 70 63 72 69 53 52 46 46 27 4 9 16 14 12 10 13 12 16 16 12 6 8 31 25 22
10 9 53 17 13 7 15 30 9 67 65 47 35 17 9 26 59 64 97 90 96 58 56 55 59 52 53 46 11 3 12 16 13 13 13 14 12 16 20 15 6 4 35 19
21 9 18 28 20 8 17 58 39 41 78 65 49 45 34 21 10 42 47 90 60 97 38 63 60 63 64 54 12 4 5 15 14 14 13 14 11 14 20 21 10 4 7 16
25 19 13 16 6 7 11 11 69 96 76 75 68 51 50 44 27 11 13 39 37 49 31 59 70 80 74 55 21 6 3 9 14 16 15 13 12 12 20 22 14 7 4 6
47 34 24 22 19 12 10 71 37 99 99 81 71 62 61 58 55 30 29 11 37 43 99 77 71 85 73 56 35 8 5 3 12 14 16 15 18 13 18 20 19 8 5 4
58 41 43 38 29 16 13 14 88 88 95 96 81 73 73 70 60 62 30 7 25 55 85 89 80 85 73 59 48 18 8 4 4 14 14 13 21 17 16 18 20 9 6 4
58 64 63 77 92 95 77 35 57 84 97 94 98 85 84 89 80 61 38 11 13 50 70 100 99 88 71 65 51 42 15 8 4 9 14 14 12 16 17 15 18 14 7 5
80 72 73 67 81 90 58 52 88 93 93 94 96 98 90 96 98 95 43 30 52 90 100 93 99 98 73 75 63 69 37 13 7 6 14 15 14 12 11 13 14 16 9 6
71 73 76 65 93 94 75 50 31 21 14 60 94 90 94 96 96 99 66 36 11 16 47 71 87 89 84 76 71 66 76 21 13 10 15 14 16 16 12 15 14 17 13 11
63 67 68 66 89 100 84 69 45 25 16 8 56 53 99 100 97 96 89 39 11 8 17 45 72 84 78 81 80 59 69 72 44 13 16 19 17 14 17 16 17 17 14 14
61 84 99 93 100 100 88 69 70 62 30 19 9 50 93 96 95 99 88 30 17 7 11 39 79 86 84 78 85 62 65 75 69 25 13 17 17 12 12 14 18 18 15 14
71 53 76 100 100 97 94 100 94 68 45 44 52 8 61 98 94 86 100 30 26 15 8 20 53 76 74 73 79 66 60 71 60 56 18 14 16 13 10 9 12 18 16 13
91 83 42 92 99 92 98 100 99 62 39 83 100 88 11 99 95 79 51 48 31 20 10 13 32 42 56 63 84 77 60 68 64 38 22 16 14 15 13 12 8 11 15 12
87 81 62 60 72 87 100 99 100 65 80 55 66 23 10 23 88 78 38 59 38 25 16 12 28 56 71 84 86 82 62 66 75 87 77 36 18 15 16 16 8 7 9 9
89 99 92 82 74 67 89 71 82 68 79 58 59 50 17 12 18 21 38 52 50 35 18 11 21 90 100 98 88 91 73 88 91 84 93 71 45 24 13 17 18 10 6 6
98 75 76 75 59 68 69 75 93 66 56 58 45 38 37 17 10 14 26 39 62 48 29 19 11 52 97 94 87 92 98 85 92 92 91 88 72 64 20 11 17 16 13 11
100 99 99 97 95 76 66 52 100 74 46 48 39 29 36 27 11 12 25 39 58 57 37 29 15 19 79 93 86 74 82 84 83 96 97 85 74 64 41 20 10 16 15 13
100 100 100 100 100 100 71 85 100 99 56 41 31 24 54 47 15 17 34 43 58 62 45 32 23 12 27 60 72 74 86 82 70 85 94 86 74 61 53 37 10 10 11 10
100 100 100 100 100 100 100 57 66 100 70 46 30 20 56 82 58 42 46 49 63 68 53 37 28 18 8 9 16 30 79 77 69 70 84 95 82 72 65 58 18 9 10 8
Wind_Speed
28 25 21 23 23 24 26 24 28 20 28 24 25 27 24 11 16 14 11 12 15 19 21 23 21 18 17 16 18 18 22 24 20 19 15 15 15 13 13 13 10 9 9 10
34 30 27 26 29 30 29 27 29 27 24 29 29 29 24 24 24 20 17 15 18 20 20 22 22 18 20 18 19 19 23 25 20 20 18 16 15 15 14 12 12 11 11 10
34 35 35 34 32 32 32 30 29 32 27 29 28 32 28 28 30 23 20 17 18 17 18 21 22 21 23 19 20 21 24 26 24 19 18 17 16 15 14 12 12 12 12 11
40 40 39 41 39 36 33 33 34 37 36 30 35 35 38 37 32 30 23 19 17 16 17 21 22 23 25 23 23 24 26 27 26 21 19 17 17 16 15 13 12 13 13 14
43 44 44 44 44 44 39 39 38 39 41 45 36 38 24 26 24 33 29 25 22 17 14 19 18 21 25 30 26 27 28 28 26 23 21 20 18 17 15 15 14 13 14 15
47 49 50 48 49 48 46 45 45 45 45 51 49 36 40 37 39 31 33 31 26 20 15 19 20 19 22 29 29 28 29 29 27 25 23 21 20 17 17 16 16 14 14 13
46 48 51 52 54 53 52 50 48 49 50 49 46 52 40 32 37 34 33 33 30 26 22 21 18 18 16 24 29 29 29 30 29 26 25 23 20 19 19 17 16 15 14 14
44 41 50 53 54 54 57 55 52 48 43 46 47 54 53 41 25 37 39 36 33 33 29 26 22 22 23 22 26 32 30 31 30 29 27 26 23 20 21 19 18 17 16 15
38 41 35 50 53 54 53 55 55 37 32 39 36 50 49 46 48 41 41 37 38 37 37 30 26 24 27 25 25 31 34 34 33 31 31 29 26 22 20 19 20 19 18 17
40 46 43 51 54 58 55 44 49 55 44 41 35 35 39 48 51 55 50 36 43 29 41 35 30 29 28 25 27 30 35 36 36 35 34 33 30 26 24 22 21 20 20 20
45 49 47 46 50 48 50 54 50 38 48 43 37 33 32 33 43 53 53 54 45 43 40 36 35 33 31 28 28 30 34 38 38 36 35 34 31 29 28 25 22 22 22 22
48 51 51 51 47 50 46 39 48 44 43 47 43 32 21 31 33 43 46 48 46 45 36 37 39 36 33 30 27 29 32 36 39 37 37 35 35 33 31 27 24 23 22 24
47 52 54 53 56 57 54 50 47 45 46 45 46 41 28 32 38 31 40 48 48 47 40 44 41 42 35 32 28 27 28 32 38 39 39 38 36 33 31 29 27 25 24 25
49 51 53 48 33 43 49 56 47 44 46 49 45 41 37 28 37 45 40 40 44 48 48 42 46 47 39 35 29 26 24 28 34 40 40 39 36 33 32 32 30 27 26 26
39 44 49 54 54 47 60 57 45 48 51 55 48 39 48 34 26 29 35 43 45 49 46 53 51 50 43 40 33 30 28 28 30 36 38 37 36 36 35 35 32 29 28 27
34 38 40 52 51 56 59 63 65 63 57 64 64 57 51 50 36 34 44 45 58 64 62 63 64 55 47 41 38 34 30 27 29 32 33 35 38 38 36 34 33 30 29 28
32 34 36 40 43 38 59 61 63 62 61 59 66 68 56 51 40 37 52 52 55 61 65 63 58 57 52 44 41 34 33 30 30 30 35 36 37 38 38 37 36 33 31 30
25 32 34 35 28 36 41 49 56 58 62 61 60 64 60 55 47 36 48 60 47 48 60 64 62 61 55 48 45 39 38 32 27 28 34 37 36 35 37 39 37 36 35 32
18 27 32 34 33 31 28 34 48 60 61 56 53 61 70 60 46 60 44 60 55 49 52 63 65 65 61 55 50 45 39 33 30 28 32 33 34 33 34 35 36 37 37 33
20 22 33 31 29 31 31 41 42 54 58 46 44 52 71 68 71 60 65 53 59 53 49 61 64 64 63 58 52 49 42 37 30 27 25 29 30 32 31 31 34 37 38 35
15 18 27 30 35 32 33 36 36 51 55 60 58 63 67 76 81 77 70 56 53 55 52 54 62 63 61 59 54 50 43 36 27 29 27 27 28 30 31 31 32 35 36 36
12 17 21 27 31 37 35 38 46 48 52 56 57 54 57 64 76 78 70 56 54 51 54 52 58 64 61 60 57 51 46 38 39 35 33 29 27 28 34 33 33 31 33 34
8 16 21 25 26 31 31 34 36 45 46 49 50 51 50 58 63 73 75 62 55 52 50 52 55 61 61 64 61 55 50 47 45 40 38 37 31 29 31 34 34 33 32 33
7 6 5 14 21 10 21 32 29 29 42 41 49 47 48 52 56 66 68 61 52 53 53 48 52 58 69 66 62 58 59 52 45 45 44 41 37 33 30 30 35 35 34 34
9 9 4 1 6 4 17 29 28 19 33 35 41 48 40 46 54 63 61 58 53 51 51 52 46 54 63 65 60 61 59 56 48 50 49 46 41 38 32 29 36 35 35 36
6 7 5 4 9 9 11 22 31 31 30 32 39 44 41 46 50 51 56 55 50 49 47 47 49 48 56 59 64 64 63 60 55 50 52 53 46 45 39 34 33 37 38 37
Wind_Direction
235 233 235 227 228 223 215 220 224 236 230 238 227 226 241 207 232 225 223 242 236 223 222 216 207 219 215 207 199 193 189 187 184 181 176 175 180 171 146 137 126 128 134 135
233 236 227 225 223 226 228 222 219 217 233 228 230 222 227 254 237 222 226 237 231 227 226 226 219 219 213 207 199 196 191 189 187 186 184 175 173 168 153 145 139 142 147 145
231 232 228 227 228 227 229 225 219 225 220 232 225 228 224 218 227 231 227 234 235 240 232 231 226 218 215 211 201 197 194 194 197 194 190 182 176 171 164 158 149 150 156 152
235 231 229 227 227 229 227 226 225 223 219 233 228 225 226 224 222 240 236 226 224 241 254 242 226 216 210 213 207 199 197 197 201 200 193 190 189 181 172 167 164 157 156 156
237 232 230 229 228 227 224 221 224 227 225 224 220 229 245 235 227 239 233 225 225 233 247 247 235 225 219 213 209 204 202 200 202 202 196 197 194 189 179 178 172 164 164 161
235 233 229 227 227 228 225 223 224 225 228 231 226 223 219 224 225 242 232 228 227 229 233 243 241 232 227 220 217 209 205 204 201 203 201 202 198 192 188 187 180 177 172 174
237 234 237 230 227 225 224 224 224 225 227 232 233 231 222 230 242 199 244 233 227 229 232 240 245 233 246 234 224 220 212 210 205 204 203 205 206 194 197 194 188 184 178 177
236 237 236 233 229 230 227 223 226 228 228 236 236 237 231 207 231 231 205 241 238 234 235 235 240 244 255 248 228 222 218 217 212 206 206 206 206 203 202 197 196 194 188 184
235 229 237 233 231 226 226 228 226 224 229 235 236 242 239 230 215 227 210 227 213 232 243 237 242 247 253 251 237 223 218 218 216 211 209 210 208 204 210 209 202 199 195 194
241 238 226 232 234 231 219 220 226 222 222 227 231 227 242 235 231 223 227 211 230 215 241 236 236 245 252 250 240 228 220 219 217 214 213 212 212 207 207 212 211 203 199 201
244 241 232 236 236 236 235 227 215 218 230 225 227 227 226 249 244 237 230 231 231 234 240 231 235 241 244 244 239 235 223 221 221 219 217 217 216 212 210 212 213 211 206 204
239 239 238 235 242 238 231 226 227 220 218 227 224 222 217 236 240 241 230 230 226 226 228 231 234 237 240 246 244 241 235 225 221 221 221 221 222 217 216 215 215 216 215 211
241 239 239 237 234 237 236 229 221 218 217 222 224 217 208 228 209 219 229 223 220 221 226 227 230 234 235 243 245 244 243 234 225 222 222 223 225 223 219 222 221 217 218 217
249 242 239 233 228 228 235 236 227 226 222 215 214 217 201 236 230 228 232 222 215 221 221 223 224 230 231 237 240 246 242 240 230 223 223 224 225 225 223 225 225 223 221 220
245 241 237 237 223 221 223 226 218 219 215 211 214 216 203 222 242 232 220 213 205 204 212 219 217 229 227 231 234 241 239 231 235 224 225 227 227 226 225 227 228 225 224 224
246 243 235 233 231 222 226 228 229 229 227 211 204 199 190 202 208 227 227 215 215 212 216 211 217 223 225 227 233 240 243 234 228 231 228 228 230 230 228 226 230 229 228 229
251 247 245 239 236 236 226 225 230 231 227 226 220 207 194 194 199 207 226 219 218 215 219 219 219 220 224 226 231 237 242 238 233 223 229 233 235 234 232 229 228 228 229 232
259 243 234 231 230 229 222 221 228 232 225 225 226 213 202 190 202 204 225 216 217 218 217 219 221 223 224 227 229 232 237 242 238 234 230 232 233 235 235 234 232 229 230 232
258 251 238 232 227 219 207 224 221 224 221 226 225 216 208 204 205 203 225 214 213 217 216 219 220 222 226 229 231 235 235 239 243 248 237 233 232 231 233 234 234 233 232 234
250 244 236 227 230 224 203 223 217 220 221 214 216 225 211 204 214 208 216 202 208 213 213 215 218 221 226 229 231 234 234 237 244 247 232 235 233 232 232 234 234 234 233 233
235 225 231 226 229 224 206 235 209 214 218 219 221 227 217 208 213 210 214 207 206 212 214 211 215 217 220 222 225 231 229 230 234 232 233 231 233 234 234 236 236 235 235 234
214 227 233 227 228 229 224 217 215 208 214 219 223 228 228 224 219 216 218 206 210 214 217 213 213 214 216 217 223 225 227 228 234 231 240 239 233 234 235 234 239 240 239 236
229 209 224 224 221 223 220 209 207 210 212 215 221 225 229 224 221 218 218 215 211 213 217 215 213 213 211 218 221 220 221 223 232 228 236 239 240 241 237 236 236 239 239 239
283 303 252 227 214 184 221 198 191 210 210 215 219 221 224 223 216 216 218 215 210 212 219 219 217 214 219 212 216 223 227 221 225 225 233 238 241 247 247 238 236 235 237 238
28 34 19 186 229 184 200 187 199 179 211 218 218 217 223 210 208 213 215 213 208 209 217 221 220 218 221 226 221 223 227 224 224 224 229 236 241 245 250 251 238 232 234 235
2 8 359 37 162 177 175 211 209 203 206 206 212 213 217 200 204 208 212 213 208 209 215 218 219 218 220 224 225 226 223 224 221 223 229 235 239 246 249 252 249 233 234 234